GW3385 Weather Reports


time (UTC)temp
C
wind
direction
speed
KPH
gust
KPH
rain 1hr
cm
rain 24hr
cm
rain mn
cm
humidity
%
barometer
mb
20260831060059 21 0 0.0 0.0 0.00 0.00 0.00 82 1011.3
20260831055552 21 0 0.0 0.0 0.00 0.00 0.00 82 1011.3
20260831055055 21 0 0.0 4.8 0.00 0.00 0.00 82 1011.2
20260831054605 21 0 0.0 4.8 0.00 0.00 0.00 82 1011.2
20260831054052 21 107 0.0 1.6 0.00 0.00 0.00 82 1011.2
20260831053559 21 0 0.0 3.2 0.00 0.00 0.00 82 1011.3
20260831053101 21 0 0.0 4.8 0.00 0.00 0.00 81 1011.2
20260831052556 21 181 0.0 4.8 0.00 0.00 0.00 81 1011.1
20260831052055 21 0 0.0 4.8 0.00 0.00 0.00 81 1011.2
20260831051559 21 0 0.0 4.8 0.00 0.00 0.00 80 1011.1
20260831051055 21 0 0.0 4.8 0.00 0.00 0.00 80 1011.2
20260831050555 21 0 0.0 6.4 0.00 0.00 0.00 80 1011.2
20260831050059 21 0 0.0 6.4 0.00 0.00 0.00 79 1011.3
20260831045556 21 189 1.6 6.4 0.00 0.00 0.00 79 1011.3
20260831045056 21 0 0.0 6.4 0.00 0.00 0.00 79 1011.3
20260831044607 21 164 0.0 4.8 0.00 0.00 0.00 78 1011.3
20260831044055 21 0 0.0 0.0 0.00 0.00 0.00 78 1011.2
20260831043555 21 0 0.0 0.0 0.00 0.00 0.00 78 1011.2
20260831043058 21 0 0.0 0.0 0.00 0.00 0.00 78 1011.1
20260831042557 21 0 0.0 4.8 0.00 0.00 0.00 79 1011.0
20260831042056 21 0 0.0 4.8 0.00 0.00 0.00 79 1010.9
20260831041603 21 0 1.6 4.8 0.00 0.00 0.00 79 1010.9
20260831041056 21 197 1.6 4.8 0.00 0.00 0.00 78 1010.9
20260831040556 21 217 0.0 3.2 0.00 0.00 0.00 78 1010.9
20260831040108 21 0 0.0 4.8 0.00 0.00 0.00 78 1010.8
20260831035555 22 178 0.0 6.4 0.00 0.00 0.00 78 1010.8
20260831035052 22 0 1.6 6.4 0.00 0.00 0.00 78 1010.7
20260831034558 22 182 0.0 0.0 0.00 0.00 0.00 78 1010.6
20260831034058 22 0 0.0 0.0 0.00 0.00 0.00 78 1010.5
20260831033556 22 0 0.0 0.0 0.00 0.00 0.00 77 1010.3
20260831033102 22 0 0.0 0.0 0.00 0.00 0.00 77 1010.3
20260831032556 22 0 0.0 0.0 0.00 0.00 0.00 77 1010.2
20260831032058 22 0 0.0 0.0 0.00 0.00 0.00 78 1010.1
20260831031601 22 0 0.0 6.4 0.00 0.00 0.00 78 1010.1
20260831031059 22 0 0.0 6.4 0.00 0.00 0.00 78 1010.1
20260831030556 22 182 0.0 4.8 0.00 0.00 0.00 77 1010.0
20260831030121 22 0 1.6 6.4 0.00 0.00 0.00 77 1010.0
20260831025556 22 185 3.2 6.4 0.00 0.00 0.00 77 1010.1
20260831025056 23 0 1.6 4.8 0.00 0.00 0.00 76 1010.1
20260831024626 23 190 0.0 4.8 0.00 0.00 0.00 75 1010.1
20260831024056 23 0 1.6 4.8 0.00 0.00 0.00 75 1010.1
20260831023555 23 190 0.0 3.2 0.00 0.00 0.00 74 1010.0
20260831023128 23 0 0.0 6.4 0.00 0.00 0.00 73 1010.0
20260831022556 23 257 0.0 8.0 0.00 0.00 0.00 73 1009.9
20260831022056 23 0 1.6 11.3 0.00 0.00 0.00 73 1009.9
20260831021623 23 0 3.2 11.3 0.00 0.00 0.00 72 1009.9
20260831021052 23 198 6.4 12.9 0.00 0.00 0.00 72 1009.9
20260831020556 23 183 4.8 12.9 0.00 0.00 0.00 72 1009.8
20260831020116 23 164 3.2 8.0 0.00 0.00 0.00 72 1009.8
20260831015555 23 0 3.2 11.3 0.00 0.00 0.00 71 1009.8
20260831015055 23 180 4.8 14.5 0.00 0.00 0.00 71 1009.8
20260831014631 23 164 6.4 14.5 0.00 0.00 0.00 69 1009.7
20260831014055 24 203 6.4 14.5 0.00 0.00 0.00 70 1009.8
20260831013556 24 197 6.4 14.5 0.00 0.00 0.00 70 1009.9
20260831013102 24 234 3.2 14.5 0.00 0.00 0.00 71 1009.8
20260831012555 24 194 6.4 14.5 0.00 0.00 0.00 70 1009.8
20260831012052 24 162 8.0 14.5 0.00 0.00 0.00 69 1009.7
20260831011617 24 196 3.2 14.5 0.00 0.00 0.00 71 1009.8
20260831011051 24 174 6.4 16.1 0.00 0.00 0.00 70 1009.8
20260831010555 24 271 6.4 16.1 0.00 0.00 0.00 71 1009.7
20260831010106 24 315 4.8 16.1 0.00 0.00 0.00 73 1009.7
20260831005556 23 270 9.7 17.7 0.00 0.00 0.00 74 1009.7
20260831005058 23 285 4.8 17.7 0.00 0.00 0.00 74 1009.6
20260831004606 23 301 4.8 19.3 0.00 0.00 0.00 75 1009.7
20260831004056 23 189 9.7 22.5 0.00 0.00 0.00 73 1009.6
20260831003555 24 189 11.3 22.5 0.00 0.00 0.00 72 1009.6
20260831003105 24 273 8.0 20.9 0.00 0.00 0.00 72 1009.6
20260831002600 24 267 9.7 20.9 0.00 0.00 0.00 72 1009.7
20260831002055 25 272 6.4 17.7 0.00 0.00 0.00 71 1009.6
20260831001605 25 136 9.7 17.7 0.00 0.00 0.00 71 1009.5
20260831001120 25 227 4.8 17.7 0.00 0.00 0.00 72 1009.5
20260831000555 25 292 9.7 19.3 0.00 0.00 0.00 71 1009.5
20260831000105 25 188 6.4 19.3 0.00 0.00 0.00 71 1009.5
20260830235551 25 267 8.0 19.3 0.00 0.00 0.00 69 1009.7
20260830235056 25 261 11.3 19.3 0.00 0.00 0.00 67 1009.6
20260830234601 25 265 6.4 16.1 0.00 0.00 0.00 69 1009.6
20260830234055 25 180 6.4 20.9 0.00 0.00 0.00 67 1009.7
20260830233555 25 235 4.8 20.9 0.00 0.00 0.00 67 1009.6
20260830233108 25 294 14.5 20.9 0.00 0.00 0.00 65 1009.5
20260830232558 26 218 8.0 19.3 0.00 0.00 0.00 67 1009.6
20260830232055 26 271 11.3 19.3 0.00 0.00 0.00 63 1009.6
20260830231607 26 224 11.3 19.3 0.00 0.00 0.00 64 1009.7
20260830231055 26 290 6.4 19.3 0.00 0.00 0.00 61 1009.7
20260830230552 26 254 9.7 19.3 0.00 0.00 0.00 63 1009.7
20260830230106 27 188 8.0 16.1 0.00 0.00 0.00 62 1009.9
20260830225556 27 160 6.4 19.3 0.00 0.00 0.00 62 1009.8
20260830225056 26 183 6.4 19.3 0.00 0.00 0.00 63 1009.7
20260830224621 26 265 8.0 19.3 0.00 0.00 0.00 65 1009.9
20260830224056 26 282 11.3 20.9 0.00 0.00 0.00 63 1009.9
20260830223556 26 256 9.7 20.9 0.00 0.00 0.00 63 1009.9
20260830223103 27 251 8.0 19.3 0.00 0.00 0.00 63 1010.0
20260830222559 27 229 8.0 17.7 0.00 0.00 0.00 63 1010.1
20260830222052 27 265 8.0 16.1 0.00 0.00 0.00 63 1010.2
20260830221620 27 208 6.4 17.7 0.00 0.00 0.00 63 1010.2
20260830221052 27 192 9.7 17.7 0.00 0.00 0.00 64 1010.3
20260830220552 27 247 8.0 17.7 0.00 0.00 0.00 63 1010.5
20260830220104 27 181 6.4 19.3 0.00 0.00 0.00 64 1010.4
20260830215556 27 291 8.0 19.3 0.00 0.00 0.00 62 1010.5
20260830215056 27 273 9.7 19.3 0.00 0.00 0.00 65 1010.6
20260830214606 27 238 3.2 17.7 0.00 0.00 0.00 64 1010.7
20260830214052 27 250 11.3 17.7 0.00 0.00 0.00 63 1010.8
20260830213554 27 240 9.7 19.3 0.00 0.00 0.00 61 1010.9
20260830213102 27 144 4.8 22.5 0.00 0.00 0.00 62 1010.9
20260830212556 27 264 11.3 22.5 0.00 0.00 0.00 62 1011.0
20260830212058 27 200 8.0 17.7 0.00 0.00 0.00 63 1011.0
20260830211559 27 169 6.4 19.3 0.00 0.00 0.00 63 1011.1
20260830211059 27 186 9.7 19.3 0.00 0.00 0.00 64 1011.1
20260830210555 27 170 9.7 20.9 0.00 0.00 0.00 63 1011.1
20260830210110 27 315 9.7 20.9 0.00 0.00 0.00 62 1011.2
20260830205555 27 180 8.0 19.3 0.00 0.00 0.00 59 1011.2
20260830205058 27 209 6.4 20.9 0.00 0.00 0.00 63 1011.2
20260830204601 27 180 11.3 20.9 0.00 0.00 0.00 62 1011.3
20260830204058 27 213 8.0 17.7 0.00 0.00 0.00 63 1011.3
20260830203552 27 195 6.4 29.0 0.00 0.00 0.00 63 1011.3
20260830203102 27 250 11.3 29.0 0.00 0.00 0.00 62 1011.4
20260830202556 27 207 4.8 19.3 0.00 0.00 0.00 63 1011.3
20260830202056 27 211 8.0 19.3 0.00 0.00 0.00 61 1011.4
20260830201614 27 232 4.8 22.5 0.00 0.00 0.00 63 1011.4
20260830201056 27 209 8.0 22.5 0.00 0.00 0.00 65 1011.3
20260830200555 27 265 8.0 17.7 0.00 0.00 0.00 66 1011.3
20260830200113 27 238 8.0 16.1 0.00 0.00 0.00 65 1011.3
20260830195557 27 295 4.8 17.7 0.00 0.00 0.00 65 1011.2
20260830195059 26 206 8.0 20.9 0.00 0.00 0.00 66 1011.3
20260830194605 26 201 8.0 20.9 0.00 0.00 0.00 66 1011.4
20260830194058 26 222 8.0 22.5 0.00 0.00 0.00 66 1011.4
20260830193555 26 270 9.7 22.5 0.00 0.00 0.00 68 1011.4
20260830193110 26 284 12.9 22.5 0.00 0.00 0.00 68 1011.5
20260830192556 26 254 8.0 19.3 0.00 0.00 0.00 66 1011.5
20260830192058 26 194 9.7 17.7 0.00 0.00 0.00 65 1011.6
20260830191613 26 276 8.0 19.3 0.00 0.00 0.00 67 1011.7
20260830191055 27 281 6.4 19.3 0.00 0.00 0.00 66 1011.7
20260830190555 27 285 6.4 20.9 0.00 0.00 0.00 66 1011.7
20260830190109 26 269 8.0 20.9 0.00 0.00 0.00 68 1011.6
20260830185555 26 266 4.8 19.3 0.00 0.00 0.00 65 1011.6
20260830185056 26 169 8.0 19.3 0.00 0.00 0.00 65 1011.6
20260830184609 26 182 6.4 19.3 0.00 0.00 0.00 64 1011.6
20260830184052 27 141 8.0 16.1 0.00 0.00 0.00 64 1011.6
20260830183552 27 261 8.0 17.7 0.00 0.00 0.00 65 1011.6
20260830183105 27 199 6.4 17.7 0.00 0.00 0.00 64 1011.6
20260830182556 27 266 6.4 17.7 0.00 0.00 0.00 63 1011.6
20260830182056 27 206 6.4 16.1 0.00 0.00 0.00 61 1011.6
20260830181556 28 159 4.8 14.5 0.00 0.00 0.00 61 1011.6
20260830181055 27 203 3.2 11.3 0.00 0.00 0.00 61 1011.6
20260830180556 27 221 3.2 11.3 0.00 0.00 0.00 61 1011.6
20260830180107 27 229 4.8 11.3 0.00 0.00 0.00 60 1011.8
20260830175555 27 268 0.0 6.4 0.00 0.00 0.00 60 1011.7
20260830175055 27 0 0.0 11.3 0.00 0.00 0.00 61 1011.8
20260830174557 27 90 1.6 12.9 0.00 0.00 0.00 60 1011.8
20260830174055 27 191 3.2 12.9 0.00 0.00 0.00 60 1011.8
20260830173555 27 169 3.2 9.7 0.00 0.00 0.00 61 1011.7
20260830173112 27 182 4.8 9.7 0.00 0.00 0.00 62 1011.7
20260830172559 27 0 1.6 8.0 0.00 0.00 0.00 64 1011.7
20260830172055 26 293 0.0 6.4 0.00 0.00 0.00 67 1011.6
20260830171612 26 0 0.0 9.7 0.00 0.00 0.00 68 1011.5
20260830171055 26 218 1.6 9.7 0.00 0.00 0.00 68 1011.6
20260830170555 26 227 0.0 6.4 0.00 0.00 0.00 69 1011.7
20260830170106 26 0 0.0 11.3 0.00 0.00 0.00 70 1011.7
20260830165555 26 30 3.2 11.3 0.00 0.00 0.00 69 1011.7
20260830165052 26 101 4.8 9.7 0.00 0.00 0.00 68 1011.8
20260830164613 26 79 3.2 9.7 0.00 0.00 0.00 67 1011.6
20260830164055 26 193 3.2 9.7 0.00 0.00 0.00 70 1011.6
20260830163552 26 0 1.6 6.4 0.00 0.00 0.00 70 1011.6
20260830163103 26 360 1.6 6.4 0.00 0.00 0.00 69 1011.5
20260830162556 25 79 1.6 9.7 0.00 0.00 0.00 71 1011.6
20260830162057 25 0 3.2 9.7 0.00 0.00 0.00 72 1011.6
20260830161613 25 113 1.6 9.7 0.00 0.00 0.00 73 1011.6
20260830161056 25 100 3.2 6.4 0.00 0.00 0.00 73 1011.6
20260830160558 25 43 1.6 6.4 0.00 0.00 0.00 73 1011.6
20260830160100 25 50 0.0 9.7 0.00 0.00 0.00 74 1011.6
20260830155552 25 109 1.6 9.7 0.00 0.00 0.00 75 1011.6
20260830155052 24 123 0.0 11.3 0.00 0.00 0.00 76 1011.6
20260830154608 24 125 1.6 11.3 0.00 0.00 0.00 76 1011.5
20260830154059 24 107 3.2 11.3 0.00 0.00 0.00 75 1011.6
20260830153600 24 61 0.0 4.8 0.00 0.00 0.00 76 1011.5
20260830153105 24 175 1.6 9.7 0.00 0.00 0.00 77 1011.5
20260830152555 23 78 3.2 9.7 0.00 0.00 0.00 77 1011.5
20260830152056 23 101 1.6 6.4 0.00 0.00 0.00 77 1011.7
20260830151607 23 139 1.6 6.4 0.00 0.00 0.00 77 1011.6
20260830151056 23 41 0.0 6.4 0.00 0.00 0.00 77 1011.6
20260830150555 23 0 0.0 0.0 0.00 0.00 0.00 77 1011.6
20260830150101 23 0 0.0 1.6 0.00 0.00 0.00 78 1011.7
20260830145555 23 0 0.0 1.6 0.00 0.00 0.00 78 1011.6
20260830145055 22 0 0.0 0.0 0.00 0.00 0.00 80 1011.5
20260830144556 22 0 0.0 0.0 0.00 0.00 0.00 81 1011.5
20260830144052 21 0 0.0 0.0 0.00 0.00 0.00 83 1011.5
20260830143552 21 0 0.0 0.0 0.00 0.00 0.00 84 1011.5
20260830143114 21 0 0.0 0.0 0.00 0.00 0.00 84 1011.5
20260830142553 21 0 0.0 0.0 0.00 0.00 0.00 84 1011.4
20260830142057 20 0 0.0 0.0 0.00 0.00 0.00 83 1011.3
20260830141558 20 0 0.0 0.0 0.00 0.00 0.00 84 1011.4
20260830141058 20 0 0.0 0.0 0.00 0.00 0.00 84 1011.3
20260830140558 20 0 0.0 0.0 0.00 0.00 0.00 85 1011.3
20260830140100 20 0 0.0 0.0 0.00 0.00 0.00 85 1011.2
20260830135555 20 0 0.0 0.0 0.00 0.00 0.00 84 1011.1
20260830135055 20 0 0.0 0.0 0.00 0.00 0.00 84 1011.2
20260830134558 20 0 0.0 0.0 0.00 0.00 0.00 84 1011.2
20260830134052 20 0 0.0 0.0 0.00 0.00 0.00 84 1011.1
20260830133552 20 0 0.0 0.0 0.00 0.00 0.00 85 1010.9
20260830133101 20 0 0.0 0.0 0.00 0.00 0.00 85 1011.0
20260830132555 20 0 0.0 0.0 0.00 0.00 0.00 85 1010.9
20260830132056 20 0 0.0 0.0 0.00 0.00 0.00 84 1010.8
20260830131558 20 0 0.0 0.0 0.00 0.00 0.00 84 1010.8
20260830131056 20 0 0.0 0.0 0.00 0.00 0.00 85 1010.7
20260830130556 20 0 0.0 0.0 0.00 0.00 0.00 85 1010.7
20260830130107 20 0 0.0 0.0 0.00 0.00 0.00 85 1010.7
20260830125555 20 0 0.0 0.0 0.00 0.00 0.00 85 1010.7
20260830125055 20 0 0.0 0.0 0.00 0.00 0.00 85 1010.6
20260830124603 20 0 0.0 0.0 0.00 0.00 0.00 85 1010.7
20260830124055 20 0 0.0 0.0 0.00 0.00 0.00 85 1010.6
20260830123555 20 0 0.0 0.0 0.00 0.00 0.00 85 1010.6
20260830123125 20 0 0.0 1.6 0.00 0.00 0.00 86 1010.4
20260830122555 20 0 0.0 4.8 0.00 0.00 0.00 86 1010.2
20260830122100 20 0 0.0 4.8 0.00 0.00 0.00 86 1010.4
20260830121602 20 0 0.0 4.8 0.00 0.00 0.00 86 1010.3
20260830121059 20 0 0.0 3.2 0.00 0.00 0.00 86 1010.4
20260830120555 20 0 0.0 3.2 0.00 0.00 0.00 87 1010.3
20260830120100 20 333 0.0 0.0 0.00 0.00 0.00 87 1010.3
20260830115556 20 0 0.0 0.0 0.00 0.00 0.00 87 1010.3
20260830115057 20 0 0.0 0.0 0.00 0.00 0.00 87 1010.3
20260830114609 20 0 0.0 0.0 0.00 0.00 0.00 87 1010.4
20260830114054 20 0 0.0 0.0 0.00 0.00 0.00 87 1010.3
20260830113555 20 0 0.0 0.0 0.00 0.00 0.00 87 1010.3
20260830113100 20 0 0.0 0.0 0.00 0.00 0.00 87 1010.2
20260830112555 20 0 0.0 0.0 0.00 0.00 0.00 87 1010.2
20260830112055 20 0 0.0 0.0 0.00 0.00 0.00 87 1010.2
20260830111557 20 0 0.0 0.0 0.00 0.00 0.00 87 1010.2
20260830111059 20 0 0.0 0.0 0.00 0.00 0.00 87 1010.1
20260830110556 20 0 0.0 0.0 0.00 0.00 0.00 87 1010.1
20260830110058 20 0 0.0 3.2 0.00 0.00 0.00 87 1010.2
20260830105555 20 0 0.0 4.8 0.00 0.00 0.00 87 1010.2
20260830105055 20 0 0.0 4.8 0.00 0.00 0.00 87 1010.2
20260830104600 20 334 0.0 4.8 0.00 0.00 0.00 87 1010.2
20260830104056 21 0 0.0 0.0 0.00 0.00 0.00 87 1010.2
20260830103556 21 0 0.0 3.2 0.00 0.00 0.00 87 1010.2
20260830103107 21 0 0.0 4.8 0.00 0.00 0.00 87 1010.3
20260830102555 21 0 1.6 4.8 0.00 0.00 0.00 86 1010.2
20260830102055 21 0 0.0 1.6 0.00 0.00 0.00 86 1010.5
20260830101606 21 0 0.0 0.0 0.00 0.00 0.00 87 1010.4
20260830101052 21 0 0.0 0.0 0.00 0.00 0.00 86 1010.4
20260830100555 21 0 0.0 0.0 0.00 0.00 0.00 86 1010.4
20260830095555 21 0 0.0 3.2 0.00 0.00 0.00 86 1010.2
20260830095055 21 0 0.0 3.2 0.00 0.00 0.00 86 1010.3
20260830094559 21 341 0.0 3.2 0.00 0.00 0.00 86 1010.2
20260830094055 21 0 0.0 0.0 0.00 0.00 0.00 86 1010.2
20260830093555 21 0 0.0 1.6 0.00 0.00 0.00 85 1010.3
20260830093112 21 0 0.0 1.6 0.00 0.00 0.00 85 1010.2
20260830092559 21 0 0.0 3.2 0.00 0.00 0.00 85 1010.2
20260830092059 21 0 0.0 3.2 0.00 0.00 0.00 85 1010.3
20260830091609 21 0 0.0 0.0 0.00 0.00 0.00 85 1010.3
20260830091056 21 0 0.0 3.2 0.00 0.00 0.00 85 1010.4
20260830090558 21 0 0.0 3.2 0.00 0.00 0.00 85 1010.4
20260830090106 21 0 0.0 3.2 0.00 0.00 0.00 85 1010.3
20260830085555 21 0 0.0 0.0 0.00 0.00 0.00 85 1010.3
20260830085056 21 0 0.0 3.2 0.00 0.00 0.00 85 1010.3
20260830084604 21 0 0.0 3.2 0.00 0.00 0.00 85 1010.1
20260830084056 21 0 0.0 3.2 0.00 0.00 0.00 85 1010.1
20260830083554 21 0 0.0 3.2 0.00 0.00 0.00 84 1010.2
20260830083108 21 31 0.0 3.2 0.00 0.00 0.00 84 1010.2
20260830082554 21 0 0.0 3.2 0.00 0.00 0.00 84 1010.3
20260830082055 21 0 0.0 3.2 0.00 0.00 0.00 84 1010.2
20260830081610 21 16 0.0 1.6 0.00 0.00 0.00 84 1010.3
20260830081058 21 0 0.0 4.8 0.00 0.00 0.00 83 1010.4
20260830080556 21 0 0.0 4.8 0.00 0.00 0.00 83 1010.4
20260830080101 21 348 0.0 4.8 0.00 0.00 0.00 83 1010.5
20260830075556 21 0 0.0 0.0 0.00 0.00 0.00 83 1010.5
20260830075056 22 0 0.0 0.0 0.00 0.00 0.00 83 1010.5
20260830074609 22 0 0.0 0.0 0.00 0.00 0.00 83 1010.6
20260830074055 22 0 0.0 0.0 0.00 0.00 0.00 83 1010.4
20260830073556 22 0 0.0 0.0 0.00 0.00 0.00 83 1010.5
20260830073101 22 0 0.0 0.0 0.00 0.00 0.00 83 1010.6
20260830072556 22 0 0.0 0.0 0.00 0.00 0.00 82 1010.6
20260830072058 21 0 0.0 0.0 0.00 0.00 0.00 82 1010.6
20260830071601 21 0 0.0 1.6 0.00 0.00 0.00 82 1010.6
20260830071056 21 0 0.0 1.6 0.00 0.00 0.00 82 1010.6
20260830070557 21 0 0.0 1.6 0.00 0.00 0.00 82 1010.6
20260830070111 22 0 0.0 4.8 0.00 0.00 0.00 82 1010.4
20260830065559 22 0 0.0 8.0 0.00 0.00 0.00 82 1010.4
20260830065052 22 105 0.0 8.0 0.00 0.00 0.00 82 1010.3
20260830064605 22 184 0.0 6.4 0.00 0.00 0.00 82 1010.3
20260830064056 22 153 0.0 4.8 0.00 0.00 0.00 81 1010.3
20260830063556 22 119 0.0 4.8 0.00 0.00 0.00 81 1010.2
20260830063101 22 0 0.0 0.0 0.00 0.00 0.00 80 1010.1
20260830062552 22 0 0.0 0.0 0.00 0.00 0.00 80 1010.0
20260830062052 22 0 0.0 4.8 0.00 0.00 0.00 81 1010.0
20260830061556 22 0 0.0 4.8 0.00 0.00 0.00 81 1010.0
20260830061055 22 0 1.6 4.8 0.00 0.00 0.00 81 1010.0
20260830060552 22 0 0.0 0.0 0.00 0.00 0.00 82 1010.0
20260830060110 22 0 0.0 0.0 0.00 0.00 0.00 82 1010.1